,,Stat5,,Stat1,,Stat2,,Stat3,,Stat4,,Wind1,,Wind1,
time,status,PA1M_AVG,status,PR1M_SUM,status,RH1M_AVG,status,SR1M_AVG,status,TA1M_AVG,status,W1dAve1m,status,W1sAve1m,
2003-03-23, 00:00:01,VALID,918.953,VALID,0,VALID,94.4942,VALID,0,VALID,20.8418,VALID,103,VALID,1.68594,
2003-03-23, 00:01:01,VALID,918.97,VALID,0,VALID,94.423,VALID,-0.0339617,VALID,20.8461,VALID,68,VALID,1.1221,
2003-03-23, 00:02:01,VALID,918.988,VALID,0,VALID,94.4166,VALID,0,VALID,20.7998,VALID,48,VALID,1.23611,
2003-03-23, 00:03:01,VALID,918.977,VALID,0,VALID,94.5133,VALID,0,VALID,20.7548,VALID,47,VALID,1.58111,
2003-03-23, 00:04:01,VALID,918.977,VALID,0,VALID,94.774,VALID,-0.0169808,VALID,20.713,VALID,41,VALID,1.67495,
2003-03-23, 00:05:01,VALID,918.944,VALID,0,VALID,95.0779,VALID,-0.0169808,VALID,20.6715,VALID,65,VALID,1.21279,
2003-03-23, 00:06:01,VALID,918.906,VALID,0,VALID,95.3945,VALID,-0.0169808,VALID,20.6454,VALID,83,VALID,1.25827,
2003-03-23, 00:07:01,VALID,918.869,VALID,0,VALID,95.5433,VALID,-0.0169808,VALID,20.6384,VALID,104,VALID,1.59493,
2003-03-23, 00:08:01,VALID,918.839,VALID,0,VALID,95.6679,VALID,0,VALID,20.6449,VALID,114,VALID,1.58355,
2003-03-23, 00:09:01,VALID,918.812,VALID,0,VALID,95.5115,VALID,0,VALID,20.6939,VALID,82,VALID,1.31629,
2003-03-23, 00:10:01,VALID,918.801,VALID,0,VALID,95.3678,VALID,-0.0169808,VALID,20.6807,VALID,77,VALID,1.43679,
2003-03-23, 00:11:01,VALID,918.797,VALID,0,VALID,95.397,VALID,0,VALID,20.6675,VALID,78,VALID,1.73125,
2003-03-23, 00:12:01,VALID,918.787,VALID,0,VALID,95.3068,VALID,-0.0339617,VALID,20.6618,VALID,73,VALID,1.65089,
2003-03-23, 00:13:01,VALID,918.763,VALID,0,VALID,95.2788,VALID,-0.0339617,VALID,20.6643,VALID,89,VALID,1.23461,
2003-03-23, 00:14:01,VALID,918.723,VALID,0,VALID,95.2597,VALID,-0.0169808,VALID,20.6842,VALID,97,VALID,1.42064,
2003-03-23, 00:15:01,VALID,918.684,VALID,0,VALID,95.2012,VALID,-0.0339617,VALID,20.7065,VALID,117,VALID,1.09903,
2003-03-23, 00:16:01,VALID,918.664,VALID,0,VALID,94.9876,VALID,0,VALID,20.7063,VALID,102,VALID,1.17045,
2003-03-23, 00:17:01,VALID,918.659,VALID,0,VALID,95.0295,VALID,-0.0339617,VALID,20.7125,VALID,121,VALID,1.3737,
2003-03-23, 00:18:00,VALID,918.656,VALID,0,VALID,94.9456,VALID,-0.0169808,VALID,20.7384,VALID,110,VALID,0.722321,
2003-03-23, 00:19:00,VALID,918.66,VALID,0,VALID,94.9138,VALID,0,VALID,20.7513,VALID,94,VALID,0.910275,
2003-03-23, 00:20:00,VALID,918.658,VALID,0,VALID,94.9355,VALID,-0.0679233,VALID,20.7909,VALID,116,VALID,1.4308,
2003-03-23, 00:21:00,VALID,918.656,VALID,0,VALID,94.6799,VALID,0,VALID,20.8485,VALID,112,VALID,1.08616,
2003-03-23, 00:22:00,VALID,918.658,VALID,0,VALID,94.3976,VALID,0,VALID,20.9075,VALID,108,VALID,0.828598,
2003-03-23, 00:23:00,VALID,918.671,VALID,0,VALID,94.1471,VALID,0,VALID,20.9326,VALID,85,VALID,1.16303,
2003-03-23, 00:24:00,VALID,918.68,VALID,0,VALID,93.8114,VALID,-0.0169808,VALID,20.9811,VALID,69,VALID,1.49081,
2003-03-23, 00:25:00,VALID,918.69,VALID,0,VALID,93.5939,VALID,-0.0169808,VALID,21.0169,VALID,44,VALID,1.13944,
2003-03-23, 00:26:00,VALID,918.719,VALID,0,VALID,93.5265,VALID,-0.0169808,VALID,21.0169,VALID,56,VALID,0.926866,
2003-03-23, 00:27:00,VALID,918.74,VALID,0,VALID,93.5596,VALID,-0.0169808,VALID,20.9843,VALID,71,VALID,0.623884,
2003-03-23, 00:28:00,VALID,918.743,VALID,0,VALID,93.7974,VALID,-0.0339617,VALID,20.9585,VALID,72,VALID,0.901042,
2003-03-23, 00:29:00,VALID,918.727,VALID,0,VALID,94.025,VALID,0,VALID,20.9482,VALID,70,VALID,1.15781,
2003-03-23, 00:30:00,VALID,918.706,VALID,0,VALID,94.0263,VALID,-0.0169808,VALID,20.962,VALID,74,VALID,1.43415,
2003-03-23, 00:31:00,VALID,918.729,VALID,0,VALID,94.0873,VALID,0,VALID,20.952,VALID,75,VALID,1.19081,
2003-03-23, 00:32:00,VALID,918.692,VALID,0,VALID,94.2513,VALID,-0.0339617,VALID,20.9294,VALID,102,VALID,1.07011,
2003-03-23, 00:33:00,VALID,918.692,VALID,0,VALID,94.3759,VALID,-0.0339617,VALID,20.9035,VALID,84,VALID,0.880515,
2003-03-23, 00:34:00,VALID,918.644,VALID,0,VALID,94.4446,VALID,-0.0169808,VALID,20.9135,VALID,96,VALID,1.25426,
2003-03-23, 00:35:00,VALID,918.614,VALID,0,VALID,94.4675,VALID,0,VALID,20.907,VALID,105,VALID,1.06098,
2003-03-23, 00:36:00,VALID,918.583,VALID,0,VALID,94.54,VALID,-0.0169808,VALID,20.897,VALID,136,VALID,1.08036,
2003-03-23, 00:37:00,VALID,918.572,VALID,0,VALID,94.5807,VALID,0,VALID,20.8997,VALID,133,VALID,1.38707,
2003-03-23, 00:38:00,VALID,918.536,VALID,0,VALID,94.4217,VALID,0,VALID,20.9343,VALID,111,VALID,1.40871,
2003-03-23, 00:39:00,VALID,918.543,VALID,0,VALID,94.2132,VALID,0.0169808,VALID,20.9736,VALID,123,VALID,1.2904,
2003-03-23, 00:40:00,VALID,918.528,VALID,0,VALID,94.1483,VALID,0.0339617,VALID,20.9925,VALID,134,VALID,0.47017,
2003-03-23, 00:41:00,VALID,918.517,VALID,0,VALID,93.7618,VALID,0.0509425,VALID,20.9994,VALID,127,VALID,1.72081,
2003-03-23, 00:42:00,VALID,918.456,VALID,0,VALID,93.4477,VALID,0.0339617,VALID,21.0156,VALID,125,VALID,1.67233,
2003-03-23, 00:43:00,VALID,918.423,VALID,0,VALID,92.8449,VALID,0.0169808,VALID,21.0121,VALID,118,VALID,1.94626,
2003-03-23, 00:44:00,VALID,918.419,VALID,0,VALID,92.6059,VALID,0,VALID,21.0216,VALID,106,VALID,1.10959,
2003-03-23, 00:45:00,VALID,918.426,VALID,0,VALID,92.4698,VALID,0.0339617,VALID,21.0412,VALID,136,VALID,1.30402,
2003-03-23, 00:46:00,VALID,918.375,VALID,0,VALID,92.4177,VALID,0.0339617,VALID,21.0412,VALID,141,VALID,1.06913,
2003-03-23, 00:47:00,VALID,918.366,VALID,0,VALID,92.4647,VALID,0,VALID,21.0477,VALID,112,VALID,1.28795,
2003-03-23, 00:48:00,VALID,918.37,VALID,0,VALID,92.2931,VALID,0.0169808,VALID,21.0313,VALID,116,VALID,1.54174,
2003-03-23, 00:49:00,VALID,918.367,VALID,0,VALID,92.4139,VALID,0,VALID,21.0156,VALID,93,VALID,1.50166,
2003-03-23, 00:50:00,VALID,918.351,VALID,0,VALID,92.5461,VALID,0.0169808,VALID,20.9962,VALID,110,VALID,1.13528,
2003-03-23, 00:51:00,VALID,918.312,VALID,0,VALID,92.6415,VALID,0,VALID,20.9534,VALID,123,VALID,1.14407,
2003-03-23, 00:52:00,VALID,918.294,VALID,0,VALID,92.7305,VALID,0,VALID,20.9353,VALID,123,VALID,1.1875,
2003-03-23, 00:53:00,VALID,918.263,VALID,0,VALID,92.7635,VALID,0,VALID,20.8858,VALID,128,VALID,0.91059,
2003-03-23, 00:54:00,VALID,918.256,VALID,0,VALID,92.7661,VALID,0,VALID,20.8599,VALID,119,VALID,0.891741,
2003-03-23, 00:55:00,VALID,918.234,VALID,0,VALID,92.714,VALID,0,VALID,20.8502,VALID,81,VALID,1.0322,
2003-03-23, 00:56:00,VALID,918.209,VALID,0,VALID,92.6796,VALID,0,VALID,20.8704,VALID,89,VALID,0.799554,
2003-03-23, 00:57:00,VALID,918.175,VALID,0,VALID,92.4418,VALID,0,VALID,20.8771,VALID,142,VALID,1.23594,
2003-03-23, 00:58:00,VALID,918.124,VALID,0,VALID,92.3337,VALID,0,VALID,20.8893,VALID,139,VALID,1.02888,
2003-03-23, 00:59:00,VALID,918.088,VALID,0,VALID,92.2358,VALID,0,VALID,20.9062,VALID,138,VALID,0.558799,
2003-03-23, 01:00:00,VALID,918.058,VALID,0,VALID,92.2155,VALID,0.0339617,VALID,20.899,VALID,118,VALID,0.70841,
2003-03-23, 01:01:00,VALID,918.061,VALID,0,VALID,92.2498,VALID,0,VALID,20.8895,VALID,138,VALID,0.775331,
2003-03-23, 01:02:00,VALID,918.079,VALID,0,VALID,92.349,VALID,0.0169808,VALID,20.8731,VALID,124,VALID,0.853082,
2003-03-23, 01:03:00,VALID,918.101,VALID,0,VALID,92.363,VALID,0,VALID,20.8343,VALID,127,VALID,1.37969,
2003-03-23, 01:04:00,VALID,918.098,VALID,0,VALID,92.3566,VALID,0.0169808,VALID,20.7955,VALID,128,VALID,1.04403,
2003-03-23, 01:05:00,VALID,918.087,VALID,0,VALID,92.3592,VALID,-0.0169808,VALID,20.7826,VALID,142,VALID,1.01451,
2003-03-23, 01:06:00,VALID,918.074,VALID,0,VALID,92.3668,VALID,-0.0169808,VALID,20.7702,VALID,159,VALID,1.08058,
2003-03-23, 01:07:00,VALID,918.055,VALID,0,VALID,92.3795,VALID,-0.0169808,VALID,20.7505,VALID,167,VALID,0.814394,
2003-03-23, 01:08:00,VALID,918.018,VALID,0,VALID,92.3884,VALID,0.0169808,VALID,20.7373,VALID,147,VALID,0.833882,
2003-03-23, 01:09:00,VALID,918.012,VALID,0,VALID,92.377,VALID,0,VALID,20.7209,VALID,151,VALID,1.27528,
2003-03-23, 01:10:00,VALID,917.968,VALID,0,VALID,92.2702,VALID,0,VALID,20.7219,VALID,135,VALID,1.27131,
2003-03-23, 01:11:00,VALID,917.976,VALID,0,VALID,92.1379,VALID,0.0169808,VALID,20.7279,VALID,141,VALID,1.33594,
2003-03-23, 01:12:00,VALID,917.97,VALID,0,VALID,91.89,VALID,0,VALID,20.7667,VALID,135,VALID,1.00937,
2003-03-23, 01:13:00,VALID,917.969,VALID,0,VALID,91.787,VALID,0.0169808,VALID,20.7958,VALID,149,VALID,0.91572,
2003-03-23, 01:14:00,VALID,917.93,VALID,0,VALID,91.8353,VALID,0.0339617,VALID,20.7955,VALID,140,VALID,0.803571,
2003-03-23, 01:15:00,VALID,917.904,VALID,0,VALID,91.923,VALID,0.0679233,VALID,20.789,VALID,152,VALID,1.0529,
2003-03-23, 01:16:00,VALID,917.877,VALID,0,VALID,91.9904,VALID,0.0169808,VALID,20.7758,VALID,144,VALID,1.36032,
2003-03-23, 01:17:00,VALID,917.848,VALID,0,VALID,91.9688,VALID,0.0339617,VALID,20.7925,VALID,136,VALID,1.06166,
2003-03-23, 01:18:00,VALID,917.848,VALID,0,VALID,91.9535,VALID,0,VALID,20.799,VALID,132,VALID,1.0841,
2003-03-23, 01:19:00,VALID,917.824,VALID,0,VALID,91.82,VALID,0,VALID,20.8149,VALID,151,VALID,1.43632,
2003-03-23, 01:20:00,VALID,917.79,VALID,0,VALID,91.7005,VALID,0,VALID,20.834,VALID,155,VALID,0.916884,
2003-03-23, 01:21:00,VALID,917.765,VALID,0,VALID,91.6509,VALID,0.0339617,VALID,20.8534,VALID,129,VALID,0.954018,
2003-03-23, 01:22:00,VALID,917.742,VALID,0,VALID,91.6369,VALID,-0.0169808,VALID,20.8672,VALID,156,VALID,0.881629,
2003-03-23, 01:23:00,VALID,917.712,VALID,0,VALID,91.6382,VALID,-0.0849042,VALID,20.8747,VALID,159,VALID,0.901563,
2003-03-23, 01:24:00,VALID,917.673,VALID,0,VALID,91.6725,VALID,-0.101885,VALID,20.8582,VALID,163,VALID,0.504687,
2003-03-23, 01:25:00,VALID,917.647,VALID,0,VALID,91.7628,VALID,-0.0849042,VALID,20.8488,VALID,136,VALID,0.444602,
2003-03-23, 01:26:00,VALID,917.622,VALID,0,VALID,91.8353,VALID,-0.0849042,VALID,20.8491,VALID,141,VALID,0.82977,
2003-03-23, 01:27:00,VALID,917.615,VALID,0,VALID,91.9561,VALID,-0.101885,VALID,20.8429,VALID,144,VALID,0.647748,
2003-03-23, 01:28:00,VALID,917.595,VALID,0,VALID,92.0184,VALID,-0.101885,VALID,20.8264,VALID,139,VALID,0.703125,
2003-03-23, 01:29:00,VALID,917.576,VALID,0,VALID,92.0362,VALID,-0.0849042,VALID,20.8167,VALID,127,VALID,0.856554,
2003-03-23, 01:30:00,VALID,917.566,VALID,0,VALID,92.1672,VALID,-0.0679233,VALID,20.8235,VALID,153,VALID,1.35446,
2003-03-23, 01:31:00,VALID,917.51,VALID,0,VALID,92.0909,VALID,-0.0849042,VALID,20.8423,VALID,149,VALID,1.14654,
2003-03-23, 01:32:00,VALID,917.501,VALID,0,VALID,91.8518,VALID,-0.0849042,VALID,20.8844,VALID,128,VALID,1.26362,
2003-03-23, 01:33:00,VALID,917.491,VALID,0,VALID,91.8111,VALID,-0.0849042,VALID,20.9137,VALID,123,VALID,1.32857,
2003-03-23, 01:34:00,VALID,917.49,VALID,0,VALID,91.7081,VALID,-0.101885,VALID,20.9849,VALID,102,VALID,1.2867,
2003-03-23, 01:35:00,VALID,917.492,VALID,0,VALID,91.2198,VALID,-0.101885,VALID,21.0625,VALID,117,VALID,0.80366,
2003-03-23, 01:36:00,VALID,917.487,VALID,0,VALID,91.1219,VALID,-0.0849042,VALID,21.0948,VALID,114,VALID,0.757353,
2003-03-23, 01:37:00,VALID,917.478,VALID,0,VALID,91.1079,VALID,-0.0339617,VALID,21.1104,VALID,157,VALID,1.25923,
2003-03-23, 01:38:00,VALID,917.471,VALID,0,VALID,91.0901,VALID,0,VALID,21.139,VALID,155,VALID,1.45247,
2003-03-23, 01:39:00,VALID,917.434,VALID,0,VALID,90.8905,VALID,0.0169808,VALID,21.1872,VALID,144,VALID,0.837277,
2003-03-23, 01:40:00,VALID,917.448,VALID,0,VALID,90.6095,VALID,-0.0169808,VALID,21.2298,VALID,113,VALID,1.33617,
2003-03-23, 01:41:00,VALID,917.454,VALID,0,VALID,90.3666,VALID,0,VALID,21.2621,VALID,157,VALID,1.0567,
2003-03-23, 01:42:00,VALID,917.434,VALID,0,VALID,90.3055,VALID,-0.0169808,VALID,21.2848,VALID,159,VALID,1.03862,
2003-03-23, 01:43:00,VALID,917.44,VALID,0,VALID,90.3144,VALID,0,VALID,21.2972,VALID,142,VALID,0.950758,
2003-03-23, 01:44:00,VALID,917.392,VALID,0,VALID,90.2598,VALID,0,VALID,21.3107,VALID,172,VALID,0.923931,
2003-03-23, 01:45:00,VALID,917.401,VALID,0,VALID,90.1504,VALID,-0.0169808,VALID,21.3268,VALID,160,VALID,0.704733,
2003-03-23, 01:46:00,VALID,917.377,VALID,0,VALID,90.242,VALID,0.0169808,VALID,21.3271,VALID,106,VALID,0.77983,
2003-03-23, 01:47:00,VALID,917.367,VALID,0,VALID,90.3335,VALID,-0.0169808,VALID,21.3174,VALID,59,VALID,0.0711806,
2003-03-23, 01:48:00,VALID,917.331,VALID,0,VALID,90.3729,VALID,-0.0169808,VALID,21.3012,VALID,59,VALID,0.0966518,
2003-03-23, 01:49:00,VALID,917.308,VALID,0,VALID,90.4645,VALID,0,VALID,21.288,VALID,58,VALID,0.334044,
2003-03-23, 01:50:00,VALID,917.32,VALID,0,VALID,90.5332,VALID,0,VALID,21.2781,VALID,33,VALID,0.303125,
2003-03-23, 01:51:00,VALID,917.32,VALID,0,VALID,90.7938,VALID,0,VALID,21.2554,VALID,19,VALID,1.11942,
2003-03-23, 01:52:00,VALID,917.312,VALID,0,VALID,91.0583,VALID,0.0169808,VALID,21.2042,VALID,20,VALID,1.03433,
2003-03-23, 01:53:00,VALID,917.338,VALID,0,VALID,91.2427,VALID,0,VALID,21.1457,VALID,21,VALID,0.824836,
2003-03-23, 01:54:00,VALID,917.353,VALID,0,VALID,91.5212,VALID,-0.0169808,VALID,21.0331,VALID,34,VALID,0.5733,
2003-03-23, 01:55:00,VALID,917.39,VALID,0,VALID,92.1367,VALID,0,VALID,20.952,VALID,37,VALID,0.137074,
2003-03-23, 01:56:00,VALID,917.385,VALID,0,VALID,92.4825,VALID,-0.0169808,VALID,20.9455,VALID,37,VALID,0.0286458,
2003-03-23, 01:57:00,VALID,917.377,VALID,0,VALID,92.4724,VALID,0,VALID,21.0072,VALID,37,VALID,0,
2003-03-23, 01:58:00,VALID,917.35,VALID,0,VALID,92.0349,VALID,-0.0339617,VALID,20.9908,VALID,37,VALID,0,
2003-03-23, 01:59:00,VALID,917.336,VALID,0,VALID,92.3605,VALID,-0.0339617,VALID,20.9811,VALID,37,VALID,0.165402,
2003-03-23, 02:00:00,VALID,917.297,VALID,0,VALID,92.3859,VALID,-0.0169808,VALID,21.0064,VALID,26,VALID,0.212946,
2003-03-23, 02:01:00,VALID,917.252,VALID,0,VALID,92.0794,VALID,-0.0679233,VALID,21.0132,VALID,52,VALID,0.214725,
2003-03-23, 02:02:00,VALID,917.23,VALID,0,VALID,91.4945,VALID,-0.0679233,VALID,20.9582,VALID,154,VALID,0.444285,
2003-03-23, 02:03:00,VALID,917.235,VALID,0,VALID,91.6407,VALID,0,VALID,20.8418,VALID,147,VALID,0.39614,
2003-03-23, 02:04:00,VALID,917.201,VALID,0,VALID,92.3465,VALID,-0.0169808,VALID,20.7254,VALID,150,VALID,0.535748,
2003-03-23, 02:05:00,VALID,917.199,VALID,0,VALID,93.0738,VALID,0.0169808,VALID,20.6306,VALID,154,VALID,0.855469,
2003-03-23, 02:06:00,VALID,917.192,VALID,0,VALID,93.6944,VALID,0.0169808,VALID,20.5759,VALID,164,VALID,0.785268,
2003-03-23, 02:07:00,VALID,917.165,VALID,0,VALID,93.9118,VALID,0,VALID,20.5538,VALID,156,VALID,0.607244,
2003-03-23, 02:08:00,VALID,917.155,VALID,0,VALID,94.1242,VALID,0,VALID,20.5153,VALID,152,VALID,0.961384,
2003-03-23, 02:09:00,VALID,917.106,VALID,0,VALID,94.4662,VALID,0.0169808,VALID,20.5023,VALID,147,VALID,0.918527,
2003-03-23, 02:10:00,VALID,917.102,VALID,0,VALID,94.6366,VALID,-0.0169808,VALID,20.4864,VALID,150,VALID,1.18205,
2003-03-23, 02:11:00,VALID,917.094,VALID,0,VALID,94.8706,VALID,0,VALID,20.5023,VALID,150,VALID,1.353,
2003-03-23, 02:12:00,VALID,917.061,VALID,0,VALID,94.8286,VALID,0,VALID,20.528,VALID,153,VALID,1.09076,
2003-03-23, 02:13:00,VALID,917.084,VALID,0,VALID,94.5641,VALID,-0.0169808,VALID,20.5376,VALID,127,VALID,0.661222,
2003-03-23, 02:14:00,VALID,917.061,VALID,0,VALID,94.5476,VALID,-0.0339617,VALID,20.5508,VALID,144,VALID,0.542318,
2003-03-23, 02:15:00,VALID,917.058,VALID,0,VALID,94.4154,VALID,-0.0339617,VALID,20.5446,VALID,152,VALID,0.599107,
2003-03-23, 02:16:00,VALID,917.035,VALID,0,VALID,94.5629,VALID,0,VALID,20.5379,VALID,158,VALID,1.04119,
2003-03-23, 02:17:00,VALID,917.01,VALID,0,VALID,94.8363,VALID,-0.0169808,VALID,20.5409,VALID,160,VALID,1.02746,
2003-03-23, 02:18:00,VALID,917.01,VALID,0,VALID,94.9367,VALID,0.0169808,VALID,20.5702,VALID,148,VALID,1.38638,
2003-03-23, 02:19:00,VALID,917.003,VALID,0,VALID,94.7752,VALID,0.0169808,VALID,20.6128,VALID,149,VALID,1.2455,
2003-03-23, 02:20:00,VALID,917.008,VALID,0,VALID,94.4141,VALID,-0.0169808,VALID,20.6516,VALID,122,VALID,0.557771,
2003-03-23, 02:21:00,VALID,917.013,VALID,0,VALID,94.4726,VALID,-0.0169808,VALID,20.6546,VALID,138,VALID,1.02413,
2003-03-23, 02:22:00,VALID,917,VALID,0,VALID,94.4243,VALID,0,VALID,20.6834,VALID,118,VALID,0.95928,
2003-03-23, 02:23:00,VALID,916.999,VALID,0,VALID,94.3912,VALID,-0.0169808,VALID,20.716,VALID,108,VALID,0.99349,
2003-03-23, 02:24:00,VALID,916.993,VALID,0,VALID,94.3772,VALID,0,VALID,20.7578,VALID,123,VALID,1.07634,
2003-03-23, 02:25:00,VALID,916.986,VALID,0,VALID,94.0975,VALID,0,VALID,20.8,VALID,117,VALID,0.828835,
2003-03-23, 02:26:00,VALID,916.984,VALID,0,VALID,93.9487,VALID,0,VALID,20.8585,VALID,114,VALID,1.20781,
2003-03-23, 02:27:00,VALID,916.954,VALID,0,VALID,93.6473,VALID,0,VALID,20.9035,VALID,105,VALID,1.02879,
2003-03-23, 02:28:00,VALID,916.93,VALID,0,VALID,93.2875,VALID,-0.0339617,VALID,20.9744,VALID,96,VALID,0.753314,
2003-03-23, 02:29:00,VALID,916.919,VALID,0,VALID,93.0115,VALID,0,VALID,21.0072,VALID,98,VALID,0.609375,
2003-03-23, 02:30:00,VALID,916.912,VALID,0,VALID,92.9759,VALID,0,VALID,21.0099,VALID,87,VALID,0.767233,
2003-03-23, 02:31:00,VALID,916.893,VALID,0,VALID,93.0662,VALID,-0.0169808,VALID,21.007,VALID,112,VALID,0.732008,
2003-03-23, 02:32:00,VALID,916.874,VALID,0,VALID,93.1043,VALID,-0.0169808,VALID,20.9714,VALID,122,VALID,0.708984,
2003-03-23, 02:33:00,VALID,916.878,VALID,0,VALID,93.1247,VALID,0,VALID,20.9649,VALID,104,VALID,0.828795,
2003-03-23, 02:34:00,VALID,916.861,VALID,0,VALID,93.3192,VALID,0,VALID,20.9453,VALID,122,VALID,0.862926,
2003-03-23, 02:35:00,VALID,916.866,VALID,0,VALID,93.2824,VALID,-0.0169808,VALID,20.9291,VALID,111,VALID,0.913839,
2003-03-23, 02:36:00,VALID,916.85,VALID,0,VALID,93.5316,VALID,-0.0169808,VALID,20.9132,VALID,125,VALID,0.917188,
2003-03-23, 02:37:00,VALID,916.8,VALID,0,VALID,93.4286,VALID,-0.0679233,VALID,20.907,VALID,129,VALID,0.812027,
2003-03-23, 02:38:00,VALID,916.795,VALID,0,VALID,93.3409,VALID,-0.0679233,VALID,20.8884,VALID,121,VALID,0.68236,
2003-03-23, 02:39:00,VALID,916.763,VALID,0,VALID,93.4858,VALID,-0.101885,VALID,20.8359,VALID,107,VALID,0.710708,
2003-03-23, 02:40:00,VALID,916.784,VALID,0,VALID,93.8342,VALID,-0.0679233,VALID,20.7817,VALID,108,VALID,0.830019,
2003-03-23, 02:41:00,VALID,916.79,VALID,0,VALID,94.0962,VALID,-0.0849042,VALID,20.7397,VALID,93,VALID,0.785807,
2003-03-23, 02:42:00,VALID,916.813,VALID,0,VALID,94.0669,VALID,-0.0679233,VALID,20.6906,VALID,63,VALID,0.510491,
2003-03-23, 02:43:00,VALID,916.821,VALID,0,VALID,94.6087,VALID,-0.0849042,VALID,20.6483,VALID,94,VALID,0.583097,
2003-03-23, 02:44:00,VALID,916.824,VALID,0,VALID,94.7816,VALID,-0.0679233,VALID,20.6591,VALID,85,VALID,0.882813,
2003-03-23, 02:45:00,VALID,916.831,VALID,0,VALID,94.9647,VALID,-0.101885,VALID,20.6618,VALID,102,VALID,0.960491,
2003-03-23, 02:46:00,VALID,916.828,VALID,0,VALID,94.8503,VALID,-0.0849042,VALID,20.6971,VALID,128,VALID,0.81321,
2003-03-23, 02:47:00,VALID,916.808,VALID,0,VALID,94.7244,VALID,-0.101885,VALID,20.7238,VALID,120,VALID,0.550164,
2003-03-23, 02:48:00,VALID,916.776,VALID,0,VALID,94.5705,VALID,-0.0849042,VALID,20.7262,VALID,101,VALID,0.290441,
2003-03-23, 02:49:00,VALID,916.777,VALID,0,VALID,94.615,VALID,-0.101885,VALID,20.7327,VALID,100,VALID,0.446496,
2003-03-23, 02:50:00,VALID,916.752,VALID,0,VALID,94.6023,VALID,-0.0849042,VALID,20.7397,VALID,94,VALID,0.369575,
2003-03-23, 02:51:00,VALID,916.737,VALID,0,VALID,94.1649,VALID,-0.0849042,VALID,20.72,VALID,58,VALID,0.575446,
2003-03-23, 02:52:00,VALID,916.721,VALID,0,VALID,94.0937,VALID,-0.0339617,VALID,20.6384,VALID,45,VALID,0.749053,
2003-03-23, 02:53:00,VALID,916.73,VALID,0,VALID,94.5387,VALID,-0.0849042,VALID,20.5909,VALID,47,VALID,0.64442,
2003-03-23, 02:54:00,VALID,916.718,VALID,0,VALID,95.0779,VALID,-0.0509425,VALID,20.5648,VALID,65,VALID,0.474777,
2003-03-23, 02:55:00,VALID,916.714,VALID,0,VALID,95.2572,VALID,-0.0849042,VALID,20.5748,VALID,73,VALID,0.68608,
2003-03-23, 02:56:00,VALID,916.712,VALID,0,VALID,95.3157,VALID,-0.101885,VALID,20.5812,VALID,113,VALID,0.440789,
2003-03-23, 02:57:00,VALID,916.7,VALID,0,VALID,95.2813,VALID,-0.0849042,VALID,20.6036,VALID,125,VALID,0.246324,
2003-03-23, 02:58:00,VALID,916.702,VALID,0,VALID,95.2216,VALID,-0.101885,VALID,20.6039,VALID,138,VALID,0.890625,
2003-03-23, 02:59:00,VALID,916.722,VALID,0,VALID,95.1478,VALID,-0.0679233,VALID,20.6036,VALID,134,VALID,0.575738,
2003-03-23, 03:00:00,VALID,916.727,VALID,0,VALID,95.1847,VALID,-0.0679233,VALID,20.5909,VALID,101,VALID,0.544643,
2003-03-23, 03:01:00,VALID,916.739,VALID,0,VALID,95.0321,VALID,-0.101885,VALID,20.5678,VALID,95,VALID,0.414536,
2003-03-23, 03:02:00,VALID,916.718,VALID,0,VALID,95.2991,VALID,-0.0849042,VALID,20.5452,VALID,97,VALID,0.509598,
2003-03-23, 03:03:00,VALID,916.739,VALID,0,VALID,95.4555,VALID,-0.0849042,VALID,20.5255,VALID,87,VALID,0.813616,
2003-03-23, 03:04:00,VALID,916.749,VALID,0,VALID,95.3106,VALID,-0.0849042,VALID,20.5519,VALID,111,VALID,1.36316,
2003-03-23, 03:05:00,VALID,916.758,VALID,0,VALID,94.6303,VALID,-0.0679233,VALID,20.6516,VALID,57,VALID,0.721012,
2003-03-23, 03:06:00,VALID,916.753,VALID,0,VALID,94.3734,VALID,-0.0849042,VALID,20.7135,VALID,67,VALID,0.676011,
2003-03-23, 03:07:00,VALID,916.773,VALID,0,VALID,94.0313,VALID,-0.0339617,VALID,20.7162,VALID,48,VALID,1.17069,
2003-03-23, 03:08:00,VALID,916.775,VALID,0,VALID,94.4166,VALID,-0.0509425,VALID,20.6842,VALID,47,VALID,0.649523,
2003-03-23, 03:09:00,VALID,916.764,VALID,0,VALID,94.7256,VALID,-0.0679233,VALID,20.668,VALID,63,VALID,0.877455,
2003-03-23, 03:10:00,VALID,916.739,VALID,0,VALID,94.9952,VALID,-0.101885,VALID,20.668,VALID,75,VALID,0.992661,
2003-03-23, 03:11:00,VALID,916.716,VALID,0,VALID,94.9253,VALID,-0.0509425,VALID,20.6844,VALID,94,VALID,0.867634,
2003-03-23, 03:12:00,VALID,916.699,VALID,0,VALID,94.7307,VALID,-0.0509425,VALID,20.7329,VALID,102,VALID,0.820536,
2003-03-23, 03:13:00,VALID,916.694,VALID,0,VALID,94.573,VALID,-0.0679233,VALID,20.7583,VALID,115,VALID,0.623816,
2003-03-23, 03:14:00,VALID,916.67,VALID,0,VALID,94.4815,VALID,-0.0509425,VALID,20.7812,VALID,126,VALID,0.663446,
2003-03-23, 03:15:00,VALID,916.687,VALID,0,VALID,94.1102,VALID,-0.0849042,VALID,20.8138,VALID,110,VALID,1.25253,
2003-03-23, 03:16:00,VALID,916.683,VALID,0,VALID,93.1946,VALID,-0.0509425,VALID,20.8881,VALID,63,VALID,1.13068,
2003-03-23, 03:17:00,VALID,916.688,VALID,0,VALID,92.7686,VALID,-0.0679233,VALID,20.9846,VALID,130,VALID,0.608724,
2003-03-23, 03:18:00,VALID,916.688,VALID,0,VALID,92.5321,VALID,-0.0339617,VALID,21.0428,VALID,108,VALID,0.747098,
2003-03-23, 03:19:00,VALID,916.693,VALID,0,VALID,92.2625,VALID,-0.0679233,VALID,21.0945,VALID,101,VALID,0.467566,
2003-03-23, 03:20:00,VALID,916.695,VALID,0,VALID,91.9917,VALID,-0.0509425,VALID,21.153,VALID,100,VALID,1.11719,
2003-03-23, 03:21:00,VALID,916.711,VALID,0,VALID,91.1499,VALID,-0.0509425,VALID,21.2109,VALID,130,VALID,1.38482,
2003-03-23, 03:22:00,VALID,916.74,VALID,0,VALID,91.0774,VALID,-0.0339617,VALID,21.3069,VALID,150,VALID,1.24384,
2003-03-23, 03:23:00,VALID,916.733,VALID,0,VALID,91.0939,VALID,0.0169808,VALID,21.3519,VALID,113,VALID,1.04893,
2003-03-23, 03:24:00,VALID,916.762,VALID,0,VALID,91.2376,VALID,0,VALID,21.3487,VALID,118,VALID,1.28056,
2003-03-23, 03:25:00,VALID,916.758,VALID,0,VALID,91.4462,VALID,0.0169808,VALID,21.3392,VALID,134,VALID,1.11861,
2003-03-23, 03:26:00,VALID,916.773,VALID,0,VALID,91.6382,VALID,0.0509425,VALID,21.3034,VALID,133,VALID,1.10373,
2003-03-23, 03:27:00,VALID,916.78,VALID,0,VALID,91.8518,VALID,0.0339617,VALID,21.2778,VALID,145,VALID,0.920536,
2003-03-23, 03:28:00,VALID,916.801,VALID,0,VALID,92.0565,VALID,0.0679233,VALID,21.2352,VALID,134,VALID,0.72964,
2003-03-23, 03:29:00,VALID,916.808,VALID,0,VALID,92.2079,VALID,0.0339617,VALID,21.2163,VALID,130,VALID,0.672098,
2003-03-23, 03:30:00,VALID,916.831,VALID,0,VALID,92.2689,VALID,0.0509425,VALID,21.1805,VALID,114,VALID,1.50469,
2003-03-23, 03:31:00,VALID,916.852,VALID,0,VALID,92.302,VALID,0.0509425,VALID,21.174,VALID,126,VALID,1.19555,
2003-03-23, 03:32:00,VALID,916.867,VALID,0,VALID,92.2435,VALID,0.0509425,VALID,21.177,VALID,126,VALID,0.978824,
2003-03-23, 03:33:00,VALID,916.873,VALID,0,VALID,92.2002,VALID,0.0169808,VALID,21.1835,VALID,122,VALID,0.599724,
2003-03-23, 03:34:00,VALID,916.886,VALID,0,VALID,92.1532,VALID,0.0339617,VALID,21.18,VALID,44,VALID,1.24527,
2003-03-23, 03:35:00,VALID,916.897,VALID,0,VALID,92.3198,VALID,0.0169808,VALID,21.1511,VALID,21,VALID,1.82118,